Terminal Aerodrome Forecast
Issued by NWS

Home | Current Version | Previous Version | Text Only | Print | Product List | Glossary On
Versions: 1 2 3 4 5 6 7 8 9 10 11 12 13 14 15 16 17 18 19 20 21 22 23 24 25 26 27 28 29
000
FTUS45 KSLC 300708 AAA
TAFENV
TAF AMD
KENV 300708Z 3007/0106 33008KT P6SM SCT150 BKN200
     FM301600 12006KT P6SM FEW150
     FM302100 14008KT P6SM SCT120 BKN200
     FM010300 29010KT P6SM SCT120 BKN200
      AMD LTD TO CLD VIS AND WIND=

USA.gov is the U.S. government's official web portal to all federal, state and local government web resources and services.